Regional Weather Roundup
Issued by NWS

Home | Current Version | Previous Version | Graphics & Text | Print | Product List | Glossary Off
Versions: 1 2 3 4 5 6 7 8 9 10 11 12 13 14 15 16 17 18 19 20 21 22 23 24 25 26 27 28 29 30 31 32 33 34 35 36 37 38 39 40 41 42 43 44 45 46 47 48 49 50

803
ASUS43 KDMX 211901
RWRIA

WEATHER ROUNDUP FOR IOWA
NATIONAL WEATHER SERVICE DES MOINES IA
200 PM CDT SAT OCT 21 2017

NOTE: "FAIR" INDICATES FEW OR NO CLOUDS BELOW 12,000 FEET WITH NO
SIGNIFICANT WEATHER AND/OR OBSTRUCTIONS TO VISIBILITY.

* - THESE STATIONS ARE NOT NWS STATIONS...THUS NOT UNDER NWS
QUALITY CONTROL.  THEY ALSO DO NOT REPORT WEATHER SUCH
AS PRECIPITATION OR FOG.

IAZ001>003-012>014-020>022-031>034-043>046-212000-
   NORTHWEST IOWA

CITY           SKY/WX    TMP DP  RH WIND       PRES   REMARKS
CHEROKEE *     CLOUDY    70  64  79 S17G25    29.62F
DENISON *      CLOUDY    72  63  73 S17G24    29.68S
LE MARS *      CLOUDY    59  48  67 NW12G21   29.67R
ORANGE CITY *  CLOUDY    59  54  82 W16G22    29.66R
SHELDON *      LGT RAIN  59  54  82 W13G22    29.62R
SIOUX CITY     CLOUDY    59  50  72 NW18G28   29.66R
SPENCER        CLOUDY    70  62  76 S20G29    29.63F
STORM LAKE *   CLOUDY    70  63  78 S26       29.65S
$$

IAZ055>058-069>071-079>083-090>094-212000-
   SOUTHWEST IOWA

CITY           SKY/WX    TMP DP  RH WIND       PRES   REMARKS
ATLANTIC *     PTSUNNY   72  63  73 S16G24    29.71F
AUDUBON *      PTSUNNY   70  64  83 S14G25    29.72S
CLARINDA *     CLOUDY    72  64  78 S17G30    29.76S
COUNCIL BLFS * CLOUDY    72  66  83 S18G24    29.68S
CRESTON *      CLOUDY    68  61  77 S20G28    29.79S
HARLAN  *      CLOUDY    72  63  73 S20G31    29.72F
LAMONI         CLOUDY    69  61  75 S10       29.82S
RED OAK *      CLOUDY    73  63  68 S20G29    29.72S
SHENANDOAH *   CLOUDY    73  63  68 S18G30    29.72S
$$

IAZ047>049-059>061-072>074-084-212000-
   CENTRAL IOWA

CITY           SKY/WX    TMP DP  RH WIND       PRES   REMARKS
AMES           CLOUDY    69  61  75 S22G31    29.76S
ANKENY *       CLOUDY    70  61  73 S14G23    29.79S
BOONE *        CLOUDY    68  59  73 S17G26    29.75R
CHARITON *     CLOUDY    72  61  68 S15G23    29.81F
DES MOINES     CLOUDY    70  60  70 S16G25    29.78F
GRINNELL*      CLOUDY    72  59  65 S14G22    29.83S
KNOXVILLE *    CLOUDY    72  59  64 SW18G24   29.80S
MARSHALLTOWN   CLOUDY    70  60  70 S17G24    29.80S
NEWTON *       CLOUDY    70  59  68 S18G25    29.81S
PELLA *        CLOUDY    73  60  64 SW12G22   29.82F
PERRY *        CLOUDY    73  62  70 S22G30    29.74S
$$

IAZ004>006-015-016-023>025-035-036-212000-
   NORTH CENTRAL IOWA

CITY           SKY/WX    TMP DP  RH WIND       PRES   REMARKS
ALGONA *       CLOUDY    66  63  88 S17G29    29.69F
CLARION *      CLOUDY    68  63  83 S25G31    29.72F
ESTHERVILLE    CLOUDY    66  63  90 S21G28    29.64F
FORT DODGE *   CLOUDY    68  61  78 S20G28    29.72S
MASON CITY     CLOUDY    66  59  78 S20G28    29.76F
FOREST CITY *  CLOUDY    66  61  82 S18G32    29.73S
WEBSTER CITY * CLOUDY    68  59  73 S15G25    29.72S
IOWA FALLS *   CLOUDY    69  59  72 S20G26    29.78F
$$

IAZ007>011-017>019-026>030-037>042-050>054-066-212000-
   NORTHEAST IOWA

CITY           SKY/WX    TMP DP  RH WIND       PRES   REMARKS
CEDAR RAPIDS   MOSUNNY   79  60  52 S21G30    29.83S HX  80
CHARLES CITY * CLOUDY    68  59  73 S10G21    29.80S
CLINTON *      SUNNY     78  60  53 S21       29.90F
DECORAH *      CLOUDY    68  57  68 CALM      29.82S
DUBUQUE        MOSUNNY   75  58  55 S21G32    29.87F
MONTICELLO *   MOSUNNY   77  59  53 S22G30    29.84F
OELWEIN *      CLOUDY    72  59  64 S14G26    29.82S
WATERLOO       CLOUDY    70  58  65 S10       29.80F
$$

IAZ064-065-067-068-078-212000-
   EAST CENTRAL IOWA

CITY           SKY/WX    TMP DP  RH WIND       PRES   REMARKS
DAVENPORT      SUNNY     78  58  49 S17G30    29.90F
IOWA CITY      MOSUNNY   80  61  52 S22G28    29.85F HX  81
MUSCATINE *    SUNNY     79  59  50 S17G26    29.86S HX  80
QUAD CITIES    SUNNY     79  59  50 S20G30    29.87F HX  80
$$

IAZ062-063-075>077-085>089-095>099-212000-
   SOUTHEAST IOWA

CITY           SKY/WX    TMP DP  RH WIND       PRES   REMARKS
BURLINGTON     SUNNY     79  63  57 S20G28    29.87F HX  80
FAIRFIELD *    MOSUNNY   79  61  53 S20G32    29.83S HX  80
FORT MADISON * MOSUNNY   81  63  54 S21       29.88F HX  82
KEOKUK *       SUNNY     79  63  57 S18G31    29.87F HX  80
OSKALOOSA *    PTSUNNY   77  60  56 S23       29.82S
OTTUMWA        MOSUNNY   79  61  53 S24G30    29.82R HX  80
WASHINGTON *   MOSUNNY   81  61  50 S18G32    29.84F HX  81
$$

ABBREVIATIONS USED IN REMARKS
   TC - TEMPERATURES IN CELSIUS
  WCI - WIND CHILL INDEX
   HX - HEAT INDEX
  VSB - VISIBILITY
$$





USA.gov is the U.S. government's official web portal to all federal, state and local government web resources and services.